| time (UTC) | temp F | wind direction | speed knots | gust knots | rain 1hr in | rain 24hr in | rain mn in | humidity % | barometer mb |
| 20260906152004 | 76 | 178 | 0.9 | 3.5 | 0.00 | 0.00 | 0.00 | 56 | 1016.8 |
| 20260906151003 | 76 | 173 | 0.0 | 4.3 | 0.00 | 0.00 | 0.00 | 58 | 1016.8 |
| 20260906150004 | 75 | 9 | 0.9 | 3.5 | 0.00 | 0.00 | 0.00 | 59 | 1016.8 |
| 20260906144003 | 71 | 239 | 0.9 | 4.3 | 0.00 | 0.00 | 0.00 | 62 | 1016.6 |
| 20260906143004 | 71 | 229 | 1.7 | 3.5 | 0.00 | 0.00 | 0.00 | 64 | 1016.6 |
| 20260906142004 | 70 | 211 | 0.0 | 3.5 | 0.00 | 0.00 | 0.00 | 64 | 1016.6 |
| 20260906141004 | 70 | 257 | 0.0 | 3.5 | 0.00 | 0.00 | 0.00 | 65 | 1016.5 |
| 20260906140004 | 69 | 323 | 0.0 | 2.6 | 0.00 | 0.00 | 0.00 | 66 | 1016.5 |
| 20260906132004 | 67 | 294 | 0.0 | 0.0 | 0.00 | 0.00 | 0.00 | 71 | 1016.3 |
| 20260906131004 | 66 | 296 | 0.0 | 0.0 | 0.00 | 0.00 | 0.00 | 72 | 1016.4 |
| 20260906130004 | 66 | 297 | 0.0 | 0.0 | 0.00 | 0.00 | 0.00 | 72 | 1016.3 |
| 20260906124004 | 65 | 297 | 0.0 | 0.0 | 0.00 | 0.00 | 0.00 | 73 | 1016.2 |
| 20260906123004 | 64 | 306 | 0.0 | 0.0 | 0.00 | 0.00 | 0.00 | 73 | 1016.3 |
| 20260906121003 | 64 | 307 | 0.0 | 0.0 | 0.00 | 0.00 | 0.00 | 73 | 1016.1 |
| 20260906120004 | 64 | 307 | 0.0 | 1.7 | 0.00 | 0.00 | 0.00 | 72 | 1015.9 |
| 20260906115003 | 64 | 308 | 0.0 | 0.9 | 0.00 | 0.00 | 0.00 | 72 | 1015.9 |
| 20260906114004 | 63 | 317 | 0.0 | 0.0 | 0.00 | 0.00 | 0.00 | 72 | 1015.7 |
| 20260906113004 | 63 | 317 | 0.0 | 0.9 | 0.00 | 0.00 | 0.00 | 71 | 1015.7 |
| 20260906112004 | 63 | 317 | 0.0 | 0.9 | 0.00 | 0.00 | 0.00 | 71 | 1015.5 |
| 20260906111004 | 63 | 317 | 0.0 | 0.9 | 0.00 | 0.00 | 0.00 | 71 | 1015.4 |
| 20260906105003 | 64 | 317 | 0.0 | 0.0 | 0.00 | 0.00 | 0.00 | 71 | 1015.1 |
| 20260906104004 | 64 | 317 | 0.0 | 0.0 | 0.00 | 0.00 | 0.00 | 71 | 1014.9 |
| 20260906103003 | 64 | 317 | 0.0 | 0.0 | 0.00 | 0.00 | 0.00 | 71 | 1014.8 |
| 20260906102003 | 64 | 317 | 0.0 | 0.0 | 0.00 | 0.00 | 0.00 | 71 | 1014.6 |
| 20260906101004 | 64 | 317 | 0.0 | 0.0 | 0.00 | 0.00 | 0.00 | 71 | 1014.4 |
| 20260906100003 | 64 | 317 | 0.0 | 1.7 | 0.00 | 0.00 | 0.00 | 71 | 1014.5 |
| 20260906095003 | 64 | 317 | 0.0 | 0.0 | 0.00 | 0.00 | 0.00 | 70 | 1014.4 |
| 20260906094004 | 64 | 317 | 0.0 | 0.0 | 0.00 | 0.00 | 0.00 | 70 | 1014.4 |
| 20260906092004 | 64 | 317 | 0.0 | 0.0 | 0.00 | 0.00 | 0.00 | 69 | 1014.0 |
| 20260906091004 | 64 | 317 | 0.0 | 0.0 | 0.00 | 0.00 | 0.00 | 69 | 1013.9 |
| 20260906090004 | 64 | 317 | 0.0 | 0.0 | 0.00 | 0.00 | 0.00 | 69 | 1013.7 |
| 20260906085003 | 65 | 317 | 0.0 | 0.0 | 0.00 | 0.00 | 0.00 | 69 | 1013.7 |
| 20260906084004 | 65 | 317 | 0.0 | 0.0 | 0.00 | 0.00 | 0.00 | 69 | 1013.6 |
| 20260906083003 | 65 | 317 | 0.0 | 0.9 | 0.00 | 0.00 | 0.00 | 68 | 1013.6 |
| 20260906081003 | 65 | 317 | 0.0 | 0.0 | 0.00 | 0.00 | 0.00 | 68 | 1013.4 |
| 20260906080004 | 65 | 317 | 0.0 | 0.0 | 0.00 | 0.00 | 0.00 | 68 | 1013.4 |
| 20260906075003 | 65 | 317 | 0.0 | 0.9 | 0.00 | 0.00 | 0.00 | 68 | 1013.5 |
| 20260906074004 | 65 | 317 | 0.0 | 0.0 | 0.00 | 0.00 | 0.00 | 68 | 1013.5 |
| 20260906073004 | 65 | 317 | 0.0 | 0.0 | 0.00 | 0.00 | 0.00 | 68 | 1013.5 |
| 20260906072004 | 66 | 317 | 0.0 | 0.9 | 0.00 | 0.00 | 0.00 | 68 | 1013.4 |
| 20260906070004 | 66 | 317 | 0.0 | 0.0 | 0.00 | 0.00 | 0.00 | 67 | 1013.5 |
| 20260906065003 | 66 | 317 | 0.0 | 0.0 | 0.00 | 0.00 | 0.00 | 67 | 1013.5 |
| 20260906064004 | 66 | 317 | 0.0 | 0.0 | 0.00 | 0.00 | 0.00 | 67 | 1013.4 |
| 20260906063004 | 66 | 317 | 0.0 | 0.0 | 0.00 | 0.00 | 0.00 | 67 | 1013.5 |
| 20260906062005 | 66 | 317 | 0.0 | 0.0 | 0.00 | 0.00 | 0.00 | 67 | 1013.5 |
| 20260906061005 | 66 | 317 | 0.0 | 0.0 | 0.00 | 0.00 | 0.00 | 67 | 1013.5 |
| 20260906055004 | 66 | 317 | 0.0 | 0.0 | 0.00 | 0.00 | 0.00 | 67 | 1013.5 |
| 20260906053005 | 67 | 317 | 0.0 | 0.0 | 0.00 | 0.00 | 0.00 | 67 | 1013.8 |
| 20260906052004 | 67 | 318 | 0.0 | 0.0 | 0.00 | 0.00 | 0.00 | 67 | 1013.8 |
| 20260906051005 | 67 | 318 | 0.0 | 0.0 | 0.00 | 0.00 | 0.00 | 67 | 1014.0 |
| 20260906045005 | 67 | 318 | 0.0 | 0.0 | 0.00 | 0.00 | 0.00 | 66 | 1013.9 |
| 20260906044005 | 67 | 318 | 0.0 | 0.0 | 0.00 | 0.00 | 0.00 | 66 | 1014.0 |
| 20260906043005 | 68 | 318 | 0.0 | 0.0 | 0.00 | 0.00 | 0.00 | 66 | 1014.0 |
| 20260906042004 | 68 | 318 | 0.0 | 0.0 | 0.00 | 0.00 | 0.00 | 66 | 1013.9 |
| 20260906041005 | 68 | 318 | 0.0 | 0.0 | 0.00 | 0.00 | 0.00 | 66 | 1013.9 |
| 20260906040005 | 68 | 318 | 0.0 | 0.0 | 0.00 | 0.00 | 0.01 | 66 | 1014.0 |
| 20260906035005 | 68 | 318 | 0.0 | 0.0 | 0.00 | 0.00 | 0.01 | 66 | 1014.0 |
| 20260906034005 | 68 | 318 | 0.0 | 0.0 | 0.00 | 0.00 | 0.01 | 66 | 1014.0 |
| 20260906033003 | 68 | 318 | 0.0 | 0.0 | 0.00 | 0.00 | 0.01 | 66 | 1013.9 |
| 20260906032003 | 68 | 318 | 0.0 | 0.0 | 0.00 | 0.00 | 0.01 | 66 | 1013.9 |
| 20260906031003 | 68 | 318 | 0.0 | 0.0 | 0.00 | 0.00 | 0.01 | 67 | 1013.9 |
| 20260906025004 | 68 | 318 | 0.0 | 0.0 | 0.00 | 0.00 | 0.01 | 66 | 1013.7 |
| 20260906024004 | 68 | 318 | 0.0 | 0.0 | 0.00 | 0.00 | 0.01 | 67 | 1013.7 |
| 20260906022004 | 69 | 319 | 0.0 | 0.0 | 0.00 | 0.00 | 0.01 | 67 | 1013.6 |
| 20260906021003 | 69 | 319 | 0.0 | 0.0 | 0.00 | 0.00 | 0.01 | 67 | 1013.4 |
| 20260906020004 | 69 | 319 | 0.0 | 0.0 | 0.00 | 0.00 | 0.01 | 67 | 1013.4 |
| 20260906015004 | 70 | 319 | 0.0 | 0.0 | 0.00 | 0.00 | 0.01 | 67 | 1013.4 |
| 20260906014003 | 70 | 319 | 0.0 | 0.0 | 0.00 | 0.00 | 0.01 | 67 | 1013.4 |
| 20260906012003 | 70 | 319 | 0.0 | 0.0 | 0.00 | 0.00 | 0.01 | 66 | 1013.2 |
| 20260906011005 | 71 | 319 | 0.0 | 0.0 | 0.00 | 0.00 | 0.01 | 65 | 1013.1 |
| 20260906005004 | 71 | 319 | 0.0 | 0.0 | 0.00 | 0.00 | 0.01 | 64 | 1013.0 |
| 20260906004004 | 72 | 319 | 0.0 | 0.0 | 0.00 | 0.00 | 0.01 | 63 | 1012.9 |
| 20260906003004 | 72 | 319 | 0.0 | 0.0 | 0.00 | 0.00 | 0.01 | 63 | 1012.8 |
| 20260906002005 | 72 | 319 | 0.0 | 0.0 | 0.00 | 0.00 | 0.01 | 62 | 1012.8 |
| 20260906000005 | 73 | 319 | 0.0 | 0.0 | 0.00 | 0.00 | 0.01 | 61 | 1012.4 |
| 20260905234005 | 74 | 319 | 0.0 | 0.0 | 0.00 | 0.00 | 0.01 | 59 | 1012.2 |
| 20260905233005 | 74 | 319 | 0.0 | 0.0 | 0.00 | 0.00 | 0.01 | 60 | 1012.2 |
| 20260905232004 | 75 | 319 | 0.0 | 0.0 | 0.00 | 0.00 | 0.01 | 59 | 1012.0 |
| 20260905231005 | 76 | 319 | 0.0 | 0.0 | 0.00 | 0.00 | 0.01 | 58 | 1012.1 |
| 20260905230005 | 76 | 319 | 0.0 | 0.0 | 0.00 | 0.00 | 0.01 | 58 | 1012.2 |
| 20260905225004 | 77 | 319 | 0.0 | 0.0 | 0.00 | 0.00 | 0.01 | 57 | 1012.1 |
| 20260905224005 | 77 | 319 | 0.0 | 0.0 | 0.00 | 0.00 | 0.01 | 56 | 1012.1 |
| 20260905223004 | 78 | 319 | 0.0 | 0.0 | 0.00 | 0.00 | 0.01 | 54 | 1012.0 |
| 20260905222005 | 78 | 319 | 0.0 | 0.0 | 0.00 | 0.00 | 0.01 | 52 | 1012.0 |
| 20260905221004 | 78 | 319 | 0.0 | 0.0 | 0.00 | 0.00 | 0.01 | 50 | 1011.9 |
| 20260905220005 | 79 | 319 | 0.0 | 0.0 | 0.00 | 0.00 | 0.01 | 51 | 1011.6 |
| 20260905215004 | 79 | 319 | 0.0 | 1.7 | 0.00 | 0.00 | 0.01 | 51 | 1011.7 |
| 20260905212005 | 80 | 253 | 0.0 | 1.7 | 0.00 | 0.00 | 0.01 | 53 | 1011.5 |
| 20260905211005 | 80 | 258 | 0.9 | 1.7 | 0.00 | 0.00 | 0.01 | 55 | 1011.6 |
| 20260905210005 | 80 | 247 | 0.0 | 0.9 | 0.00 | 0.00 | 0.01 | 50 | 1011.5 |
| 20260905205005 | 81 | 247 | 0.0 | 0.9 | 0.00 | 0.00 | 0.01 | 50 | 1011.5 |
| 20260905204004 | 81 | 250 | 0.9 | 3.5 | 0.00 | 0.00 | 0.01 | 49 | 1011.3 |
| 20260905203005 | 81 | 225 | 4.3 | 4.3 | 0.00 | 0.00 | 0.01 | 48 | 1011.3 |
| 20260905202005 | 81 | 225 | 0.0 | 0.0 | 0.00 | 0.00 | 0.01 | 49 | 1011.4 |
| 20260905201005 | 81 | 275 | 0.0 | 3.5 | 0.00 | 0.00 | 0.01 | 49 | 1011.4 |
| 20260905200005 | 81 | 71 | 0.0 | 1.7 | 0.00 | 0.00 | 0.01 | 51 | 1011.4 |
| 20260905195004 | 81 | 290 | 0.0 | 1.7 | 0.00 | 0.00 | 0.01 | 51 | 1011.5 |
| 20260905194005 | 80 | 261 | 0.0 | 0.0 | 0.00 | 0.00 | 0.01 | 52 | 1011.7 |
| 20260905192005 | 80 | 250 | 0.0 | 3.5 | 0.00 | 0.00 | 0.01 | 51 | 1012.0 |
| 20260905191004 | 81 | 300 | 0.0 | 1.7 | 0.00 | 0.00 | 0.01 | 52 | 1012.2 |
| 20260905190004 | 80 | 231 | 0.0 | 1.7 | 0.00 | 0.00 | 0.01 | 53 | 1012.3 |
| 20260905185005 | 80 | 355 | 0.0 | 0.0 | 0.00 | 0.00 | 0.01 | 51 | 1012.3 |
| 20260905184005 | 80 | 279 | 0.0 | 0.0 | 0.00 | 0.00 | 0.01 | 53 | 1012.3 |
| 20260905183004 | 80 | 69 | 0.0 | 1.7 | 0.00 | 0.00 | 0.01 | 53 | 1012.3 |
| 20260905182004 | 80 | 268 | 0.0 | 0.0 | 0.00 | 0.00 | 0.01 | 54 | 1012.4 |
| 20260905181005 | 79 | 250 | 0.0 | 0.9 | 0.00 | 0.00 | 0.01 | 53 | 1012.4 |
| 20260905180004 | 80 | 315 | 0.0 | 0.0 | 0.00 | 0.00 | 0.01 | 55 | 1012.5 |
| 20260905175004 | 80 | 105 | 0.0 | 0.9 | 0.00 | 0.00 | 0.01 | 53 | 1012.5 |
| 20260905174004 | 80 | 52 | 0.0 | 4.3 | 0.00 | 0.00 | 0.01 | 54 | 1012.5 |
| 20260905173005 | 78 | 27 | 0.0 | 0.0 | 0.00 | 0.00 | 0.01 | 57 | 1012.7 |
| 20260905172005 | 78 | 5 | 0.0 | 0.0 | 0.00 | 0.00 | 0.01 | 60 | 1012.7 |
| 20260905171004 | 78 | 271 | 0.0 | 0.0 | 0.00 | 0.00 | 0.01 | 61 | 1012.8 |
| 20260905165005 | 77 | 224 | 0.0 | 0.0 | 0.00 | 0.00 | 0.01 | 59 | 1013.1 |
| 20260905164005 | 77 | 145 | 0.0 | 0.0 | 0.00 | 0.00 | 0.01 | 59 | 1013.0 |
| 20260905162004 | 77 | 316 | 0.0 | 1.7 | 0.00 | 0.00 | 0.01 | 59 | 1013.2 |
| 20260905161004 | 77 | 259 | 6.1 | 6.1 | 0.00 | 0.00 | 0.01 | 59 | 1013.3 |
| 20260905160004 | 77 | 332 | 0.0 | 1.7 | 0.00 | 0.00 | 0.01 | 61 | 1013.4 |
| 20260905154004 | 76 | 317 | 1.7 | 2.6 | 0.00 | 0.00 | 0.01 | 61 | 1013.5 |